Weather History for KDMO - October, 2012

Change the Weather History Date:

Wednesday, October 10, 2012

  Actual Average Record
Temperature  
Mean Temperature 49 °F 60 °F  
Max Temperature 61 °F 71 °F 95 °F (1963)
Min Temperature 36 °F 50 °F 28 °F (1979)
Degree Days  
Heating Degree Days 16 6  
Month to date heating degree days 110 54  
Since 1 July heating degree days 150 99  
Cooling Degree Days 0 2  
Month to date cooling degree days 0 20  
Year to date cooling degree days 2080 1470  
Moisture  
Dew Point 32 °F    
Average Humidity 53    
Maximum Humidity 76    
Minimum Humidity 29    
Precipitation  
Precipitation 0.00 in 0.12 in 0.76 in (1949)
Month to date precipitation 0.63 1.28  
Year to date precipitation 22.81 33.33  
Sea Level Pressure  
Sea Level Pressure 30.23 in    
Wind  
Wind Speed 5 mph (West)    
Max Wind Speed 12 mph    
Max Gust Speed 17 mph    
Visibility 10 miles    
Events      
T = Trace of Precipitation, MM = Missing Value Source: NWS Daily Summary

Daily Weather History Graph

Daily Weather History Graph

Search for Another Location

Airport or City:

Trip Planner

Search our weather history database for the weather conditions in past years. The results will help you decide how hot, cold, wet, or windy it might be!

Date:

Astronomy

Oct. 10, 2012 Rise Set
Actual Time 7:17 AM CDT 6:40 PM CDT
Civil Twilight 6:50 AM CDT 7:07 PM CDT
Nautical Twilight 6:20 AM CDT 7:38 PM CDT
Astronomical Twilight 5:49 AM CDT 8:09 PM CDT
Moon 1:57 AM CDT (10/10) 3:41 PM CDT (10/10)
Length of Visible Light 12h 16m
Length of Day
11h 23m
Waning Crescent, 27% of the Moon is Illuminated
Oct 10
Waning Crescent
Oct 15
New
Oct 21
First Quarter
Oct 29
Full
Nov 6
Last Quarter

Hourly Weather History & Observations

Time (CDT) Temp. Windchill Dew Point Humidity Pressure Visibility Wind Dir Wind Speed Gust Speed Precip Events Conditions
12:53 AM 45.0 °F 43.5 °F 37.9 °F 76% 30.13 in 10.0 mi NW 3.5 mph - N/A   Clear
1:53 AM 44.1 °F 41.5 °F 35.1 °F 71% 30.15 in 10.0 mi WNW 4.6 mph - N/A   Clear
2:53 AM 42.1 °F 38.4 °F 34.0 °F 73% 30.17 in 10.0 mi NW 5.8 mph - N/A   Clear
3:53 AM 41.0 °F 39.0 °F 32.0 °F 70% 30.19 in 10.0 mi West 3.5 mph - N/A   Clear
4:53 AM 39.9 °F 37.8 °F 32.0 °F 73% 30.20 in 10.0 mi WNW 3.5 mph - N/A   Clear
5:53 AM 39.9 °F 37.8 °F 30.9 °F 70% 30.21 in 10.0 mi West 3.5 mph - N/A   Clear
6:53 AM 37.9 °F - 30.9 °F 76% 30.24 in 10.0 mi Calm Calm - N/A   Clear
8:53 AM 45.0 °F 43.5 °F 33.1 °F 63% 30.29 in 10.0 mi WNW 3.5 mph - N/A   Clear
9:53 AM 50.0 °F - 32.0 °F 50% 30.30 in 10.0 mi Variable 3.5 mph - N/A   Clear
10:53 AM 53.1 °F - 28.9 °F 40% 30.33 in 10.0 mi North 4.6 mph - N/A   Clear
11:53 AM 54.0 °F - 28.9 °F 38% 30.33 in 10.0 mi NW 5.8 mph - N/A   Clear
12:53 PM 55.9 °F - 28.0 °F 34% 30.30 in 10.0 mi Variable 4.6 mph - N/A   Clear
1:53 PM 57.0 °F - 28.0 °F 33% 30.27 in 10.0 mi Variable 3.5 mph - N/A   Clear
2:53 PM 60.1 °F - 30.0 °F 32% 30.25 in 10.0 mi WNW 6.9 mph - N/A   Clear
3:53 PM 61.0 °F - 30.0 °F 31% 30.23 in 10.0 mi NW 4.6 mph - N/A   Clear
4:53 PM 60.1 °F - 28.9 °F 31% 30.22 in 10.0 mi Variable 3.5 mph - N/A   Clear
5:53 PM 59.0 °F - 28.9 °F 32% 30.20 in 10.0 mi Calm Calm - N/A   Clear
6:53 PM 54.0 °F - 32.0 °F 43% 30.20 in 10.0 mi South 3.5 mph - N/A   Clear
7:53 PM 50.0 °F - 33.1 °F 52% 30.20 in 10.0 mi SSE 4.6 mph - N/A   Clear
8:53 PM 46.0 °F 41.9 °F 33.1 °F 61% 30.20 in 10.0 mi South 8.1 mph - N/A   Clear
9:53 PM 45.0 °F 41.2 °F 33.1 °F 63% 30.20 in 10.0 mi South 6.9 mph - N/A   Clear
10:53 PM 43.0 °F 38.8 °F 33.1 °F 68% 30.21 in 10.0 mi South 6.9 mph - N/A   Clear
11:53 PM 43.0 °F 38.8 °F 33.1 °F 68% 30.20 in 10.0 mi South 6.9 mph - N/A   Clear